Flag for Canada Weather past 2 weeks in Camrose, Alberta, Canada

Now
16 °F

Passing clouds.


Feels Like: 7 °F
Forecast: 16 / 36 °F
Wind: 6 mph from Southwest

Location: Edmonton International

Current Time: Mar 5, 2015 at 12:32:50 AM

Latest Report: Mar 5, 2015 at 12:00 AM


Visibility: 15 mi

Pressure: 30.06 "Hg

Humidity: 53%

Dew point: 1 °F

Location of CamroseLocation

Historic Weather in Camrose — Graph

°F

Camrose temperature yesterday

Maximum temperature yesterday: 21 °F (at 5:00 PM)
Minimum temperature yesterday: -6 °F (at 2:00 AM)
Average temperature yesterday: 6 °F

Past Weeks' High & Low Weather Summary

 TemperatureHumidityPressure
High43 °F (Feb 19, 12:00 PM)93% (Feb 18, 12:00 AM)30.76 "Hg (Feb 18, 12:00 AM)
Low-9 °F (Mar 3, 11:00 PM)44% (Feb 21, 3:00 PM)29.86 "Hg (Feb 24, 11:00 AM)
Average17 °F72%30.27 "Hg
* Reported Feb 17 11:00 PM — Mar 4 11:00 PM, Camrose, Weather by CustomWeather, © 2015

Note: Actual official high and low records may vary slightly from our data, if they occured in-between our weather recording intervals... More about our weather records

Advertising

Camrose weather history for previous 24 hours

 ConditionsComfort  
Time TempWeatherWind HumidityBarometerVisibility
11:00 PM
Wed, Mar 4
14 °FClear.7 mph62%30.08 "Hg15 mi
10:00 PM16 °FPassing clouds.6 mph53%30.07 "Hg15 mi
9:00 PM10 °FPassing clouds.9 mph67%30.07 "Hg15 mi
8:00 PM10 °FPassing clouds.7 mph67%30.09 "Hg15 mi
7:00 PM18 °FPassing clouds.5 mph62%30.07 "Hg15 mi
6:00 PM19 °FPassing clouds.3 mph58%30.06 "Hg15 mi
5:00 PM21 °FPassing clouds.5 mph58%30.07 "Hg15 mi
3:00 PM19 °FPassing clouds.12 mph53%30.08 "Hg15 mi
2:00 PM18 °FPassing clouds.13 mph58%30.10 "Hg15 mi
1:00 PM16 °FBroken clouds.10 mph53%30.14 "Hg15 mi
12:00 PM12 °FBroken clouds.12 mph57%30.18 "Hg15 mi
11:00 AM9 °FScattered clouds.13 mph56%30.22 "Hg15 mi
10:00 AM3 °FBroken clouds.16 mph66%30.22 "Hg15 mi
9:00 AM1 °FPartly sunny.15 mph60%30.24 "Hg15 mi
8:00 AM-4 °FScattered clouds.10 mph65%30.26 "Hg15 mi
7:00 AM-6 °FPassing clouds.12 mph70%30.28 "Hg15 mi
6:00 AM-6 °FPassing clouds.14 mph70%30.29 "Hg15 mi
5:00 AM-6 °FClear.12 mph64%30.32 "Hg15 mi
4:00 AM-6 °FClear.8 mph64%30.33 "Hg15 mi
3:00 AM-6 °FClear.9 mph64%30.36 "Hg15 mi
2:00 AM-6 °FClear.9 mph64%30.38 "Hg15 mi
1:00 AM-2 °FClear.8 mph59%30.38 "Hg15 mi
12:00 AM-4 °FClear.9 mph59%30.39 "Hg15 mi
Weather by CustomWeather, © 2015

See weather overviewHow to use our weather pages